Printer-friendly version

IAU Minor Planet Center

Minor Planet Center

MPEC 2001-L17: 2001 KX67

The following Minor Planet Electronic Circular may be linked-to from your own Web pages, but must not otherwise be redistributed electronically.


Read MPEC 2001-L16 Read MPEC 2001-L18


M.P.E.C. 2001-L17                                Issued 2001 June 5, 23:51 UT

     The Minor Planet Electronic Circulars contain information on unusual
         minor planets and routine data on comets.  They are published
   on behalf of Commission 20 of the International Astronomical Union by the
          Minor Planet Center, Smithsonian Astrophysical Observatory,
                          Cambridge, MA 02138, U.S.A.

             Prepared using the Tamkin Foundation Computer Network

                              MPC@CFA.HARVARD.EDU
          URL http://cfa-www.harvard.edu/iau/mpc.html  ISSN 1523-6714

                                   2001 KX67

Observations:
     K01K67X* C2001 05 29.40477 20 55 47.34 +03 03 07.5          20.2        644
     K01K67X  C2001 05 29.41557 20 55 48.17 +03 03 25.2          19.8        644
     K01K67X  C2001 05 29.42664 20 55 48.99 +03 03 43.2          19.7        644
     K01K67X 1C2001 05 31.43723 20 58 21.81 +03 58 49.8                      658
     K01K67X 1C2001 05 31.43950 20 58 22.01 +03 58 52.1                      658
     K01K67X 1C2001 05 31.44200 20 58 22.29 +03 58 56.9                      658
     K01K67X 4C2001 06 02.37826 21 00 47.10 +04 53 18.5                      673
     K01K67X 4C2001 06 02.38521 21 00 47.57 +04 53 30.0                      673
     K01K67X  C2001 06 03.56339 21 02 14.64 +05 27 08.9          20.8        608
     K01K67X  C2001 06 03.57437 21 02 15.44 +05 27 27.6          20.5        608
     K01K67X  C2001 06 03.58486 21 02 16.19 +05 27 45.5          21.0        608
     K01K67X 1C2001 06 04.38706 21 03 15.20 +05 50 54.3                      658
     K01K67X 1C2001 06 04.39439 21 03 15.72 +05 51 06.0                      658
     K01K67X 1C2001 06 04.40182 21 03 16.21 +05 51 19.5                      658

Observer details:
608 Haleakala-NEAT/MSSS.  Observers E. F. Helin, S. Pravdo, K. Lawrence,
    P. Kervin, R. Maeda, J. Africano, M. Hicks.  1.2-m reflector + CCD.
644 Palomar Mountain/NEAT.  Observers E. F. Helin, S. Pravdo, K. Lawrence,
    M. Hicks, E. Hovland, T. Bickler, J. Schroeder, L. Scherr, R. Thicksten,
    A. Deetz.  1.2-m Schmidt + CCD.
658 National Research Council of Canada.  Observer D. D. Balam.  1.82-m
    Plaskett reflector + CCD.
673 Table Mountain Observatory, Wrightwood.  Observers D. Esqueda, A. Esqueda,
    T. Ha.  Measurer M. Hicks.  0.6-m reflector + CCD.

Orbital elements:
2001 KX67
Epoch 2001 May 31.0 TT = JDT 2452060.5                  Spahr
M 344.75732              (2000.0)            P               Q
n   0.14089873     Peri.  107.49774     +0.93900363     +0.09178004
a   3.6576151      Node   248.29291     -0.18138453     +0.95095903
e   0.6180807      Incl.   20.89958     +0.29218459     +0.29538678
P   7.00           H   16.5           G   0.15
From 14 observations 2001 May 29-June 4.

Ephemeris:
2001 KX67                a,e,i = 3.66, 0.62, 21                  q = 1.3969
Date    TT    R. A. (2000) Decl.     Delta      r     Elong.  Phase     V
2001 05 31    20 57.81   +03 46.8    1.215    1.831   110.1    31.3    19.6
2001 06 10    21 09.92   +08 38.8    1.091    1.767   114.0    31.7    19.3
2001 06 20    21 20.92   +14 01.8    0.982    1.705   117.2    32.0    19.0
2001 06 30    21 30.64   +19 50.6    0.889    1.647   119.5    32.5    18.7
2001 07 10    21 39.00   +25 55.7    0.811    1.593   120.8    33.2    18.4
2001 07 20    21 45.90   +32 02.7    0.749    1.543   121.2    34.3    18.2
2001 07 30    21 51.38   +37 52.3    0.699    1.500   120.9    35.5    18.1
2001 08 09    21 55.80   +43 04.9    0.661    1.463   120.3    36.8    17.9
2001 08 19    21 59.75   +47 22.6    0.630    1.433   119.8    37.8    17.8
2001 08 29    22 04.38   +50 30.4    0.605    1.412   119.8    38.3    17.7
2001 09 08    22 11.25   +52 19.0    0.585    1.400   120.8    38.2    17.6
2001 09 18    22 21.74   +52 41.0    0.568    1.397   122.8    37.2    17.5
2001 09 28    22 36.80   +51 31.1    0.556    1.403   126.1    35.2    17.4
2001 10 08    22 56.20   +48 49.6    0.551    1.419   130.2    32.5    17.3
2001 10 18    23 18.60   +44 43.9    0.557    1.443   134.7    29.4    17.3
2001 10 28    23 42.48   +39 37.0    0.578    1.475   138.2    26.7    17.4
2001 11 07    00 06.38   +34 05.8    0.618    1.515   139.5    25.1    17.5
2001 11 17    00 29.44   +28 48.8    0.679    1.561   138.0    25.1    17.8
2001 11 27    00 51.44   +24 15.5    0.762    1.612   134.0    26.1    18.1
2001 12 07    01 12.34   +20 38.7    0.865    1.668   128.6    27.5    18.5
2001 12 17    01 32.29   +17 57.9    0.986    1.727   122.5    28.7    18.9
2001 12 27    01 51.55   +16 06.2    1.123    1.790   116.3    29.5    19.3
2002 01 06    02 10.25   +14 53.6    1.273    1.855   110.0    29.9    19.7
2002 01 16    02 28.56   +14 10.9    1.434    1.922   103.7    29.8    20.0
2002 01 26    02 46.61   +13 50.0    1.605    1.991    97.6    29.4    20.3
2002 02 05    03 04.45   +13 44.2    1.782    2.060    91.6    28.6    20.6
2002 02 15    03 22.15   +13 48.2    1.964    2.130    85.7    27.5    20.8
2002 02 25    03 39.75   +13 58.1    2.149    2.201    79.8    26.3    21.1
2002 03 07    03 57.24   +14 10.4    2.334    2.271    74.0    24.8    21.3
2002 03 17    04 14.62   +14 22.9    2.520    2.342    68.3    23.3    21.5

Timothy B. Spahr             (C) Copyright 2001 MPC           M.P.E.C. 2001-L17

Read MPEC 2001-L16 Read MPEC 2001-L18


Our Web policy. Index to the CBAT/MPC/ICQ pages.


Valid HTML 4.01!